GEOSCAN 2 (RS92S2)

Last updated on Thu Sep 10 2026 00:03:13 GMT+0000 (Coordinated Universal Time)

1 64890U 25155Q 26252.57616810 .00008433 00000+0 27030-3 0 9998 2 64890 97.4641 222.0040 0005448 207.2510 152.8447 15.32596534 93701
UTC large
Height (km)
Speed (km/s)
/
Latitude / Longitude
Inclination (degrees)
Orbital Period (minutes)
Azimuth
Elevation
Range (km)
Doppler Factor

Next 0 passes for location: London (51.5072 / 0.1276)

No passes found over London.
GEOSCAN 2 (RS92S2)